Greenville, SC

2:25 PM EST on February 23, 2017 (GMT -0500)
Greenville Downtown

Weather History for KGMU - July, 2013

Change the Weather History Date:

Monday, July 15, 2013

  Actual Average Record
Temperature  
Mean Temperature 78 °F -  
Max Temperature 87 °F 87 °F 100 °F (1993)
Min Temperature 71 °F 68 °F 64 °F (2011)
Cooling Degree Days 12    
Growing Degree Days 28 (Base 50)    
Moisture  
Dew Point 69 °F    
Average Humidity 80    
Maximum Humidity 94    
Minimum Humidity 57    
Precipitation  
Precipitation 0.04 in - - ()
Sea Level Pressure  
Sea Level Pressure 30.31 in    
Wind  
Wind Speed 7 mph (NE)    
Max Wind Speed 13 mph    
Max Gust Speed 17 mph    
Visibility 10 miles    
Events Rain , Thunderstorm    
Averages and records for this station are not official NWS values.
T = Trace of Precipitation, MM = Missing Value Source: NWS Daily Summary

Daily Weather History Graph

Daily Weather History Graph

Search for Another Location

Airport or City:

Trip Planner

Search our weather history database for the weather conditions in past years. The results will help you decide how hot, cold, wet, or windy it might be!

Date:

Astronomy

Jul. 15, 2013 Rise Set
Actual Time 6:27 AM EDT 8:43 PM EDT
Civil Twilight 5:58 AM EDT 9:12 PM EDT
Nautical Twilight 5:23 AM EDT 9:47 PM EDT
Astronomical Twilight 4:44 AM EDT 10:25 PM EDT
Moon 1:25 PM EDT (7/15) 12:13 AM EDT (7/15)
Length of Visible Light 15h 13m
Length of Day
14h 15m
Waxing Crescent, 45% of the Moon is Illuminated
Jul 15
Waxing Crescent
Jul 15
First Quarter
Jul 22
Full
Jul 29
Last Quarter
Aug 6
New

Hourly Weather History & Observations

Time (EDT) Temp. Heat Index Dew Point Humidity Pressure Visibility Wind Dir Wind Speed Gust Speed Precip Events Conditions
12:53 AM 71.1 °F - 68.0 °F 90% 30.29 in 10.0 mi NNE 4.6 mph - N/A   Mostly Cloudy
1:53 AM 71.1 °F - 69.1 °F 93% 30.29 in 10.0 mi NNE 8.1 mph - N/A   Clear
2:16 AM 71.6 °F - 69.8 °F 94% 30.31 in 10.0 mi NNE 8.1 mph - N/A   Partly Cloudy
2:53 AM 71.1 °F - 69.1 °F 93% 30.29 in 10.0 mi NNE 5.8 mph - N/A   Partly Cloudy
3:53 AM 71.1 °F - 68.0 °F 90% 30.28 in 10.0 mi NNE 9.2 mph - N/A   Partly Cloudy
4:12 AM 71.6 °F - 69.8 °F 94% 30.31 in 10.0 mi NNE 9.2 mph - N/A   Mostly Cloudy
4:31 AM 71.6 °F - 68.0 °F 88% 30.31 in 10.0 mi NNE 8.1 mph - N/A   Scattered Clouds
4:53 AM 71.1 °F - 68.0 °F 90% 30.28 in 10.0 mi NE 6.9 mph - N/A   Clear
5:45 AM 71.6 °F - 69.8 °F 94% 30.32 in 10.0 mi NE 6.9 mph - N/A   Mostly Cloudy
5:53 AM 71.1 °F - 69.1 °F 93% 30.29 in 10.0 mi ENE 3.5 mph - N/A   Mostly Cloudy
6:16 AM 71.6 °F - 68.0 °F 88% 30.32 in 10.0 mi NE 6.9 mph - N/A   Mostly Cloudy
6:24 AM 71.6 °F - 68.0 °F 88% 30.32 in 10.0 mi NNE 8.1 mph - N/A   Mostly Cloudy
6:31 AM 71.6 °F - 68.0 °F 88% 30.32 in 10.0 mi NE 5.8 mph - N/A   Mostly Cloudy
6:53 AM 71.1 °F - 68.0 °F 90% 30.30 in 10.0 mi NNE 9.2 mph - N/A   Mostly Cloudy
7:44 AM 71.6 °F - 69.8 °F 94% 30.34 in 10.0 mi NE 6.9 mph - N/A   Overcast
7:53 AM 72.0 °F - 69.1 °F 91% 30.32 in 10.0 mi NE 6.9 mph - N/A   Overcast
8:06 AM 73.4 °F - 69.8 °F 88% 30.34 in 10.0 mi NE 6.9 mph - N/A   Overcast
8:53 AM 73.9 °F - 70.0 °F 87% 30.32 in 10.0 mi NE 5.8 mph - N/A   Mostly Cloudy
9:53 AM 75.0 °F - 70.0 °F 84% 30.32 in 10.0 mi ENE 6.9 mph - N/A   Overcast
10:53 AM 77.0 °F - 69.1 °F 76% 30.33 in 10.0 mi NE 6.9 mph - N/A   Overcast
11:10 AM 75.2 °F - 69.8 °F 83% 30.36 in 10.0 mi NE 8.1 mph - 0.00 in   Overcast
11:39 AM 78.8 °F - 71.6 °F 78% 30.36 in 10.0 mi NE 5.8 mph - 0.02 in   Mostly Cloudy
11:46 AM 77.0 °F - 69.8 °F 78% 30.36 in 10.0 mi East 8.1 mph - 0.02 in   Mostly Cloudy
11:53 AM 79.0 °F - 70.0 °F 74% 30.34 in 10.0 mi East 8.1 mph - 0.02 in   Mostly Cloudy
12:18 PM 80.6 °F 83.9 °F 69.8 °F 70% 30.36 in 10.0 mi East 8.1 mph - N/A   Scattered Clouds
12:53 PM 82.9 °F 87.0 °F 70.0 °F 65% 30.32 in 10.0 mi ENE 10.4 mph - N/A   Clear
1:00 PM 82.4 °F 85.4 °F 68.0 °F 62% 30.35 in 10.0 mi ENE 9.2 mph - N/A   Mostly Cloudy
1:53 PM 82.9 °F 86.5 °F 69.1 °F 63% 30.30 in 10.0 mi NE 9.2 mph - N/A   Mostly Cloudy
2:00 PM 82.4 °F 86.3 °F 69.8 °F 66% 30.33 in 10.0 mi ENE 11.5 mph - N/A   Mostly Cloudy
2:53 PM 84.9 °F 88.2 °F 68.0 °F 57% 30.29 in 10.0 mi NE 8.1 mph 16.1 mph N/A   Scattered Clouds
3:53 PM 84.0 °F 87.0 °F 68.0 °F 58% 30.27 in 10.0 mi ENE 12.7 mph 17.3 mph N/A   Mostly Cloudy
4:53 PM 84.9 °F 88.2 °F 68.0 °F 57% 30.25 in 10.0 mi NE 10.4 mph - N/A   Partly Cloudy
5:53 PM 84.9 °F 88.2 °F 68.0 °F 57% 30.25 in 10.0 mi NNE 8.1 mph - N/A   Mostly Cloudy
6:53 PM 84.0 °F 87.0 °F 68.0 °F 58% 30.26 in 10.0 mi ENE 9.2 mph - 0.00 in Rain Light Rain
7:53 PM 81.0 °F 85.2 °F 72.0 °F 74% 30.27 in 10.0 mi ENE 4.6 mph - 0.02 in   Mostly Cloudy
8:53 PM 75.0 °F - 69.1 °F 82% 30.27 in 10.0 mi Calm Calm - N/A   Scattered Clouds
9:09 PM 75.2 °F - 69.8 °F 83% 30.30 in 10.0 mi NNE 4.6 mph - N/A Thunderstorm Mostly Cloudy
9:25 PM 77.0 °F - 69.8 °F 78% 30.30 in 10.0 mi Calm Calm - N/A   Mostly Cloudy
9:53 PM 77.0 °F - 70.0 °F 79% 30.29 in 10.0 mi NE 5.8 mph - N/A   Mostly Cloudy
10:53 PM 75.9 °F - 70.0 °F 82% 30.30 in 10.0 mi North 3.5 mph - 0.00 in   Clear
11:53 PM 75.0 °F - 70.0 °F 84% 30.31 in 10.0 mi North 3.5 mph - N/A   Clear